Weather in Petah Tikva

Israel     32°05′10″N   34°53′13″E
temp.,
°C
wind,
m/s
gust,
m/s
humid.,
%
clouds,
%
prec.,
mm/h
press.,
hPa
HPBL,
m
29 july, thu
thu2900:00+25ssw34800 0.0 1007192
03:00+24ssw34840 0.0 1006147
06:00+24s348919 0.0 1006123
09:00+28sw34670 0.0 1006691
12:00+33w66370 0.0 10051347
15:00+33wnw76350 0.0 10051251
18:00+31wnw66420 0.0 1004896
21:00+27wsw33630 0.0 1005151
30 july, fri
fri3000:00+25s33760 0.0 1005163
03:00+24s22760 0.0 100559
06:00+23sse33810 0.0 100548
09:00+27ssw33610 0.0 1005685
12:00+33w43330 0.0 10041401
15:00+34wnw65330 0.0 10031193
18:00+31nw55390 0.0 1003853
21:00+27n12600 0.0 100497
31 july, sat
sat3100:00+26ese11640 0.0 100438
03:00+25nnw00601 0.0 100329
06:00+23sw11700 0.0 100434
09:00+28sw12460 0.0 1004485
12:00+34w43250 0.0 10041227
15:00+34wnw64260 0.0 10031134
18:00+32nw54330 0.0 1003727
21:00+28nne22500 0.0 100545
1 august, sun
sun100:00+26e11500 0.0 100428
03:00+25w00460 0.0 100415
06:00+24ssw11500 0.0 100517
09:00+29sw22370 0.0 1006402
12:00+35w44230 0.0 10051235
15:00+36wnw65210 0.0 10041093
18:00+32nw54300 0.0 1004682
21:00+28nnw11480 0.0 100537
2 august, mon
mon200:00+27e11490 0.0 100524
03:00+26s00460 0.0 100413
06:00+25ssw22490 0.0 100521
09:00+30sw22350 0.0 1005382
12:00+36w54230 0.0 10041238
15:00+36wnw65220 0.0 10041170
18:00+33nw55290 0.0 1004726
21:00+29n11440 0.0 100538